Wind_Speed
6 5 4 5 6 6 6 6 7 7 6 6 6 7 6 6 6 5 4 4 4 4 4 4 4 4 3 3 3 3 2 2 2 3 3 4 5 5 5 6 6 6 6
5 5 3 3 4 4 4 5 5 5 6 6 6 6 6 6 6 6 4 3 4 4 3 3 3 3 4 4 4 3 3 3 3 4 5 5 6 7 7 7 7 8 8
6 6 6 6 4 2 2 3 4 5 5 5 5 5 5 5 5 5 4 4 4 4 5 4 4 4 4 4 4 4 4 5 5 6 6 7 7 8 8 8 9 9 10
7 6 6 6 5 4 3 3 4 4 4 5 5 5 5 5 5 5 5 5 5 6 6 6 4 4 4 5 5 5 5 6 7 8 8 9 8 9 9 9 10 10 11
8 7 6 6 5 6 5 4 4 4 4 5 5 5 6 6 6 5 6 6 7 6 6 7 6 5 6 6 7 7 7 8 8 9 9 9 9 10 10 10 11 11 12
9 9 9 7 6 7 6 6 6 6 5 5 5 6 6 6 6 6 6 6 7 7 7 8 7 7 7 8 8 8 9 9 10 10 10 10 10 11 11 12 12 13 13
10 10 9 8 8 9 8 8 7 7 7 6 7 6 6 6 7 7 7 7 8 8 8 9 9 9 9 10 9 9 10 10 10 11 11 12 12 13 13 13 14 15 15
11 10 10 9 9 10 9 9 8 8 8 8 7 7 7 7 8 8 9 9 9 10 10 10 10 9 9 9 10 10 11 11 11 12 13 13 13 14 14 15 15 15 15
11 11 11 10 9 10 11 11 9 10 11 9 8 8 8 8 8 9 9 10 11 11 11 11 10 10 10 10 10 11 11 12 12 12 13 13 13 14 15 15 15 15 16
14 14 13 11 10 11 12 12 11 11 11 11 10 10 10 10 10 10 10 11 12 12 11 11 11 11 11 12 12 12 13 13 13 14 14 14 14 15 15 16 16 17 17
17 16 15 13 13 13 14 14 13 12 12 12 12 12 12 11 11 11 11 12 13 13 13 13 13 13 13 13 13 13 14 14 15 16 16 16 16 16 16 17 17 18 19
17 17 16 15 15 15 14 14 14 13 13 13 13 12 12 13 13 13 14 13 13 13 13 14 14 14 15 15 15 15 15 16 17 17 17 17 17 17 17 18 19 19 20
16 16 16 16 15 16 16 15 15 14 14 14 13 13 13 14 14 15 15 14 14 14 14 15 15 16 16 17 16 16 16 17 17 17 16 17 18 18 19 19 20 21 21
16 16 16 16 15 16 16 16 15 15 15 15 15 14 15 15 15 15 15 15 15 14 15 15 16 16 17 17 17 17 17 17 17 18 18 19 19 20 20 21 22 22 23
18 18 17 17 17 17 16 17 16 17 17 17 17 17 16 16 17 16 16 16 15 15 15 16 16 17 17 17 18 19 19 19 19 19 20 20 21 22 22 23 23 24 24
21 20 20 19 19 19 18 18 18 19 19 18 18 18 18 18 18 18 17 17 17 17 16 16 17 18 18 19 19 19 20 20 21 21 21 22 23 23 23 24 25 25 24
22 23 22 19 20 20 19 19 20 21 20 19 19 19 19 19 20 19 18 18 18 18 18 18 18 19 19 20 20 21 22 22 22 22 22 22 23 24 24 25 25 25 24
24 23 23 21 20 20 21 21 21 21 20 19 19 19 20 21 21 20 20 19 19 19 19 19 19 19 20 20 21 22 23 23 23 23 23 23 23 24 24 24 25 25 24
25 23 22 22 21 21 21 22 23 22 22 21 21 22 22 22 22 21 21 21 21 20 20 20 20 21 21 22 22 23 24 24 24 24 25 25 24 24 24 24 24 24 23
27 25 23 22 22 21 21 22 23 22 22 22 22 22 23 23 23 23 22 21 22 21 22 22 22 22 22 23 23 24 24 25 25 26 26 25 25 25 25 24 24 23 23
26 25 24 23 23 21 21 22 22 22 22 22 23 23 24 24 24 24 23 23 23 23 22 22 22 23 23 24 24 24 24 24 25 26 26 25 25 24 22 22 22 22 22
26 25 25 25 24 24 23 24 23 23 22 22 23 24 24 24 24 23 24 24 24 23 22 23 23 24 25 25 25 25 25 25 25 25 26 25 24 22 21 21 21 22 23
28 28 27 27 26 26 25 24 24 23 23 23 24 24 25 25 24 24 24 24 24 24 24 25 25 25 25 25 25 26 26 25 25 26 26 25 23 22 21 21 22 23 23
30 30 29 29 28 27 26 25 25 24 23 24 24 25 26 26 26 25 25 25 26 26 26 26 26 25 25 25 25 26 25 25 25 26 25 24 23 22 22 22 22 23 23
32 32 31 31 30 29 29 28 27 26 26 26 26 26 26 26 26 26 26 26 26 27 27 26 25 25 25 25 26 26 26 26 25 25 25 24 23 23 23 23 23 24 25
33 33 33 32 31 31 31 31 30 29 28 28 29 28 28 28 28 28 27 26 27 27 26 26 25 25 25 25 26 26 26 26 26 26 26 25 25 25 24 24 24 25 25
Wind_Direction
2 8 28 41 43 42 45 42 41 42 40 35 32 34 40 42 39 38 39 40 35 31 21 25 21 18 11 358 349 337 314 306 308 313 314 310 303 310 307 304 303 304 304
341 339 344 358 16 32 36 31 28 29 30 29 27 28 32 31 29 27 21 15 12 10 8 8 356 354 350 346 340 319 310 307 298 296 297 299 302 303 300 296 296 298 302
328 330 331 331 332 347 5 7 5 10 14 14 12 14 17 15 14 13 12 5 354 353 350 337 335 339 336 331 332 317 301 304 298 293 293 292 298 300 298 295 295 296 299
314 313 320 327 321 306 314 330 342 347 352 356 354 354 355 354 354 354 354 350 342 340 345 342 328 322 320 320 319 309 306 304 302 297 295 294 295 301 304 297 295 295 297
301 298 301 310 309 301 291 296 305 313 326 333 338 337 334 333 335 333 335 339 334 330 333 336 326 311 305 306 305 304 302 303 301 300 299 297 297 301 299 298 297 296 295
286 285 289 293 292 292 282 288 292 294 305 313 318 322 323 322 322 322 325 326 328 327 325 326 326 318 309 306 303 300 300 298 297 298 297 298 298 298 298 296 295 294 293
281 280 281 285 291 291 282 285 288 290 295 299 303 307 310 312 314 315 317 316 316 319 318 317 317 315 309 303 299 299 300 295 293 296 299 299 297 296 295 296 297 296 294
278 278 280 280 284 283 281 286 288 290 292 292 292 297 300 301 301 304 304 304 304 307 307 306 307 307 308 306 301 299 302 299 295 294 298 300 301 300 299 296 296 297 296
273 278 276 276 277 283 287 288 289 291 289 287 285 287 292 294 293 294 296 298 300 301 300 300 300 303 306 307 306 304 304 302 300 299 300 302 303 302 300 299 297 296 296
276 277 278 272 275 281 282 284 288 291 287 282 281 284 288 288 288 291 294 295 297 298 298 293 294 297 299 300 301 303 302 299 298 298 297 299 299 300 300 298 297 297 298
271 278 277 276 278 281 283 282 283 286 283 281 281 281 284 285 290 293 293 295 297 296 294 293 295 293 294 298 299 300 300 296 294 294 294 295 297 298 297 298 298 298 298
270 269 272 275 276 279 280 280 281 282 280 279 279 279 287 290 291 292 296 296 296 296 293 291 292 292 292 294 295 296 297 296 293 293 293 294 295 297 297 298 298 298 297
271 267 265 272 274 275 276 276 276 277 278 277 280 280 282 285 288 292 293 295 296 297 296 294 292 291 291 291 292 293 294 296 295 293 293 294 295 296 295 296 297 297 297
275 267 266 272 277 275 274 272 273 274 275 276 277 279 282 283 285 289 292 295 295 294 294 295 293 289 288 289 290 291 292 295 296 294 294 295 296 296 295 295 295 295 295
278 276 272 271 275 277 276 271 271 271 270 271 271 273 278 282 286 287 289 291 293 292 294 296 293 292 290 290 291 292 292 293 293 293 293 295 296 295 294 294 294 294 294
280 279 278 275 277 278 277 273 273 274 270 269 269 270 275 279 283 284 284 286 287 286 288 292 293 294 294 294 294 293 293 293 293 293 292 294 295 296 297 295 295 294 294
280 280 276 275 279 277 273 271 271 270 270 268 270 269 271 277 280 280 280 282 283 283 285 287 289 292 293 293 292 293 292 291 291 291 290 293 296 296 297 296 297 297 296
276 278 278 277 279 274 271 269 272 267 263 266 270 271 275 279 280 280 279 278 279 281 284 286 289 291 293 293 292 293 292 292 292 291 290 292 295 297 300 301 299 297 296
275 276 277 277 277 275 273 269 267 265 264 266 270 274 277 278 279 280 278 278 278 280 282 284 287 290 293 293 291 292 293 293 293 291 291 291 294 295 298 300 299 296 295
272 275 278 276 275 276 272 267 267 265 264 267 270 272 274 276 276 277 277 277 277 279 282 285 287 289 292 293 293 292 292 292 291 290 292 292 293 294 295 298 300 298 297
270 272 275 278 277 275 270 269 269 269 268 269 270 272 274 276 276 275 275 274 276 278 281 286 288 291 291 292 294 293 291 292 291 290 291 292 294 295 295 297 300 301 300
268 270 272 274 274 272 269 267 269 273 271 268 269 272 275 276 276 276 276 275 275 276 280 284 288 291 294 293 293 293 293 293 294 294 292 291 292 294 296 299 302 302 301
266 269 270 270 269 269 269 268 268 269 269 267 268 270 273 274 275 274 275 275 276 278 280 283 286 289 292 294 294 293 293 294 294 295 293 292 293 297 296 297 299 300 301
265 267 267 266 266 266 267 267 266 268 267 266 268 269 271 273 274 273 273 274 276 278 280 282 284 287 291 293 294 293 295 295 293 293 294 292 292 295 295 296 297 298 298
265 265 265 265 266 267 267 266 265 266 266 266 268 270 271 271 272 271 272 273 275 278 280 280 283 287 290 291 293 294 295 295 295 294 295 294 293 295 294 294 295 295 295
262 264 265 265 266 267 267 267 267 267 265 266 266 268 269 271 272 271 272 273 274 277 278 281 284 286 288 290 293 294 294 296 296 296 294 292 293 294 296 295 295 295 295
Height
5921 5921 5919 5918 5918 5917 5917 5917 5916 5915 5914 5913 5912 5911 5911 5910 5909 5909 5908 5908 5907 5907 5906 5906 5905 5905 5904 5904 5903 5902 5902 5902 5901 5901 5901 5900 5899 5898 5898 5897 5896 5894 5893
5920 5920 5919 5918 5917 5917 5917 5917 5916 5916 5914 5913 5912 5912 5911 5910 5909 5909 5908 5907 5907 5906 5906 5905 5905 5904 5903 5903 5902 5902 5901 5901 5900 5900 5899 5899 5898 5897 5896 5895 5894 5892 5891
5919 5919 5918 5918 5917 5917 5916 5916 5916 5915 5914 5913 5912 5911 5910 5910 5909 5908 5908 5907 5906 5906 5905 5904 5903 5903 5902 5902 5901 5901 5900 5899 5899 5898 5898 5897 5896 5895 5894 5892 5891 5890 5889
5918 5918 5918 5917 5917 5916 5916 5915 5915 5914 5913 5912 5911 5911 5910 5909 5908 5908 5907 5906 5906 5905 5904 5903 5902 5902 5901 5900 5900 5899 5898 5898 5897 5896 5895 5895 5893 5893 5891 5890 5889 5887 5886
5916 5916 5916 5916 5915 5915 5914 5914 5913 5913 5912 5911 5910 5909 5909 5908 5907 5906 5906 5905 5904 5903 5902 5902 5901 5900 5899 5898 5898 5897 5896 5895 5894 5894 5893 5892 5891 5890 5889 5887 5886 5884 5883
5913 5913 5913 5913 5913 5913 5912 5912 5911 5911 5910 5910 5909 5908 5907 5906 5906 5905 5904 5903 5902 5901 5901 5900 5899 5898 5897 5896 5895 5894 5893 5892 5891 5891 5890 5889 5888 5886 5885 5884 5882 5881 5879
5911 5911 5910 5910 5910 5910 5909 5909 5909 5908 5908 5908 5907 5906 5906 5905 5904 5903 5902 5901 5900 5899 5898 5897 5896 5895 5894 5893 5892 5891 5890 5889 5888 5887 5886 5885 5884 5883 5882 5880 5878 5876 5875
5907 5907 5907 5907 5908 5907 5906 5906 5906 5906 5905 5905 5905 5904 5904 5903 5902 5901 5900 5899 5898 5897 5895 5894 5893 5892 5891 5890 5888 5887 5886 5885 5884 5883 5882 5881 5880 5878 5877 5876 5874 5872 5871
5904 5904 5904 5904 5904 5904 5903 5903 5903 5903 5902 5902 5902 5901 5900 5900 5899 5898 5897 5896 5895 5893 5892 5891 5890 5889 5888 5886 5885 5884 5883 5882 5881 5879 5878 5877 5876 5874 5872 5871 5869 5868 5866
5900 5900 5900 5900 5901 5901 5901 5900 5900 5899 5899 5898 5898 5898 5897 5896 5896 5895 5894 5892 5891 5890 5889 5888 5886 5885 5884 5883 5882 5880 5879 5878 5877 5875 5874 5873 5871 5869 5868 5866 5864 5863 5861
5895 5896 5896 5896 5897 5897 5897 5896 5896 5895 5895 5895 5894 5894 5893 5893 5892 5890 5889 5888 5887 5886 5885 5884 5883 5881 5880 5879 5878 5877 5875 5874 5872 5871 5870 5868 5866 5865 5863 5861 5860 5858 5856
5890 5891 5892 5892 5892 5892 5892 5892 5892 5891 5891 5891 5889 5889 5889 5888 5888 5887 5885 5884 5883 5882 5881 5880 5879 5877 5876 5875 5874 5872 5871 5869 5867 5866 5865 5863 5861 5860 5858 5856 5854 5852 5850
5885 5886 5886 5887 5887 5888 5888 5888 5888 5887 5887 5886 5886 5885 5885 5884 5883 5882 5881 5880 5879 5878 5876 5875 5874 5873 5871 5870 5869 5868 5866 5864 5863 5861 5859 5858 5856 5855 5853 5851 5848 5846 5844
5881 5881 5881 5882 5882 5882 5882 5882 5883 5883 5882 5882 5881 5881 5880 5879 5879 5878 5877 5875 5874 5873 5872 5870 5869 5868 5866 5865 5864 5863 5861 5859 5858 5856 5854 5852 5851 5849 5847 5845 5842 5840 5838
5876 5876 5876 5877 5877 5877 5877 5877 5877 5877 5877 5877 5877 5876 5876 5875 5874 5873 5872 5871 5870 5868 5867 5866 5864 5863 5861 5860 5859 5857 5856 5854 5852 5850 5849 5847 5845 5842 5840 5838 5836 5833 5831
5870 5871 5872 5872 5872 5871 5872 5872 5871 5872 5872 5872 5871 5871 5870 5870 5869 5868 5867 5866 5865 5863 5862 5861 5860 5858 5856 5855 5853 5852 5850 5848 5846 5844 5842 5840 5838 5836 5834 5831 5829 5826 5824
5865 5865 5866 5867 5867 5867 5867 5866 5866 5866 5866 5865 5865 5865 5865 5864 5863 5862 5861 5860 5859 5858 5857 5856 5855 5853 5851 5849 5848 5846 5844 5842 5840 5838 5836 5834 5832 5829 5827 5824 5822 5819 5816
5859 5860 5860 5860 5861 5860 5860 5860 5860 5859 5859 5859 5859 5859 5859 5858 5857 5856 5856 5855 5853 5852 5851 5850 5849 5847 5846 5843 5841 5840 5838 5835 5833 5831 5830 5827 5825 5823 5820 5818 5815 5812 5810
5853 5853 5853 5853 5854 5854 5854 5854 5854 5853 5853 5853 5853 5853 5853 5852 5851 5850 5849 5848 5847 5846 5845 5844 5843 5841 5839 5837 5835 5833 5831 5829 5826 5824 5823 5820 5818 5816 5814 5811 5809 5806 5803
5845 5845 5846 5846 5846 5847 5847 5847 5847 5847 5847 5846 5846 5846 5846 5845 5845 5844 5843 5842 5841 5840 5839 5838 5836 5835 5832 5830 5828 5825 5823 5821 5819 5817 5815 5813 5811 5809 5806 5804 5802 5799 5797
5837 5838 5838 5838 5839 5840 5840 5841 5841 5841 5841 5841 5840 5840 5839 5839 5838 5837 5836 5835 5834 5834 5833 5831 5830 5828 5826 5823 5820 5818 5816 5814 5812 5810 5808 5806 5804 5801 5799 5797 5795 5793 5790
5830 5830 5830 5831 5832 5832 5833 5833 5833 5834 5833 5833 5833 5833 5832 5831 5831 5830 5829 5828 5827 5827 5826 5824 5823 5821 5819 5816 5814 5812 5809 5807 5805 5802 5800 5798 5796 5794 5793 5791 5789 5786 5784
5822 5822 5823 5824 5824 5825 5825 5826 5826 5826 5826 5826 5826 5826 5825 5824 5823 5823 5822 5821 5820 5819 5819 5817 5816 5814 5812 5809 5807 5805 5802 5799 5797 5795 5793 5791 5789 5787 5786 5784 5782 5780 5778
5813 5814 5815 5815 5816 5816 5817 5818 5818 5818 5818 5818 5818 5818 5817 5816 5816 5815 5814 5814 5813 5812 5812 5811 5809 5807 5804 5802 5800 5797 5795 5793 5791 5789 5786 5784 5783 5781 5779 5778 5776 5773 5771
5804 5805 5806 5807 5807 5808 5809 5809 5809 5809 5810 5810 5810 5810 5809 5809 5808 5807 5807 5806 5805 5805 5804 5803 5801 5800 5798 5796 5793 5791 5788 5786 5784 5782 5780 5778 5776 5774 5772 5771 5769 5766 5764
5795 5796 5797 5798 5798 5799 5799 5800 5800 5800 5801 5801 5801 5801 5800 5800 5800 5800 5799 5798 5797 5796 5795 5795 5794 5792 5791 5788 5786 5784 5781 5779 5777 5775 5773 5771 5769 5767 5765 5763 5761 5759 5756